March AFB, CA

4:05 PM PST on December 04, 2016 (GMT -0800)
March Air Reserve Base

Weather History for KRIV - December, 2013

Change the Weather History Date:

Wednesday, December 25, 2013

  Actual Average Record
Temperature  
Mean Temperature 56 °F -  
Max Temperature 73 °F 62 °F 77 °F (2006)
Min Temperature 39 °F 37 °F 28 °F (1998)
Degree Days  
Heating Degree Days 9    
Growing Degree Days 6 (Base 50)    
Moisture  
Dew Point 23 °F    
Average Humidity 32    
Maximum Humidity 66    
Minimum Humidity 10    
Precipitation  
Precipitation 0.00 in - - ()
Sea Level Pressure  
Sea Level Pressure 30.20 in    
Wind  
Wind Speed 5 mph (NNW)    
Max Wind Speed 9 mph    
Max Gust Speed -    
Visibility 10 miles    
Events      
Averages and records for this station are not official NWS values.
T = Trace of Precipitation, MM = Missing Value Source: NWS Daily Summary

Daily Weather History Graph

Daily Weather History Graph

Search for Another Location

Airport or City:

Trip Planner

Search our weather history database for the weather conditions in past years. The results will help you decide how hot, cold, wet, or windy it might be!

Date:

Astronomy

Dec. 25, 2013 Rise Set
Actual Time 6:52 AM PST 4:46 PM PST
Civil Twilight 6:24 AM PST 5:14 PM PST
Nautical Twilight 5:53 AM PST 5:45 PM PST
Astronomical Twilight 5:22 AM PST 6:15 PM PST
Moon No Moon Rise 11:39 AM PST (12/25)
Length of Visible Light 10h 49m
Length of Day
9h 54m
Waning Gibbous, 47% of the Moon is Illuminated
Dec 25
Waning Gibbous
Jan 1
New
Jan 7
First Quarter
Jan 15
Full
Jan 23
Last Quarter

Hourly Weather History & Observations

Time (PST) Temp. Windchill Dew Point Humidity Pressure Visibility Wind Dir Wind Speed Gust Speed Precip Events Conditions
12:58 AM 45.9 °F 42.9 °F 31.6 °F 58% 30.21 in 10.0 mi West 5.8 mph - N/A   Clear
1:58 AM 49.1 °F - 29.7 °F 47% 30.21 in 10.0 mi NW 6.9 mph - N/A   Clear
2:58 AM 43.3 °F 39.9 °F 29.7 °F 59% 30.22 in 10.0 mi NW 5.8 mph - N/A   Clear
3:58 AM 39.9 °F - 29.5 °F 66% 30.21 in 10.0 mi Calm Calm - N/A   Clear
4:58 AM 39.6 °F - 29.1 °F 66% 30.22 in 10.0 mi Variable 2.3 mph - N/A   Clear
5:58 AM 41.9 °F 40.0 °F 28.6 °F 59% 30.22 in 10.0 mi Variable 3.5 mph - N/A   Clear
6:58 AM 45.0 °F 42.6 °F 28.0 °F 52% 30.23 in 10.0 mi NNE 4.6 mph - N/A   Clear
7:58 AM 50.4 °F - 28.6 °F 43% 30.25 in 10.0 mi North 3.5 mph - N/A   Clear
8:58 AM 61.3 °F - 27.1 °F 27% 30.25 in 10.0 mi North 5.8 mph - N/A   Clear
9:58 AM 66.7 °F - 24.3 °F 20% 30.25 in 10.0 mi NW 6.9 mph - N/A   Clear
10:58 AM 69.4 °F - 23.2 °F 17% 30.23 in 10.0 mi NW 5.8 mph - N/A   Clear
11:58 AM 72.3 °F - 20.5 °F 14% 30.19 in 10.0 mi NW 9.2 mph - N/A   Clear
12:58 PM 73.0 °F - 20.1 °F 14% 30.16 in 10.0 mi Variable 4.6 mph - N/A   Clear
1:58 PM 73.4 °F - 21.9 °F 14% 30.14 in 10.0 mi Variable 3.5 mph - N/A   Clear
2:58 PM 73.6 °F - 14.2 °F 10% 30.15 in 10.0 mi East 5.8 mph - N/A   Clear
3:58 PM 71.2 °F - 20.1 °F 14% 30.16 in 10.0 mi Variable 2.3 mph - N/A   Clear
4:58 PM 66.2 °F - 18.9 °F 16% 30.18 in 10.0 mi NNW 3.5 mph - N/A   Clear
5:58 PM 55.6 °F - 22.8 °F 28% 30.19 in 10.0 mi WNW 2.3 mph - N/A   Clear
6:58 PM 53.8 °F - 21.2 °F 28% 30.20 in 10.0 mi NW 4.6 mph - N/A   Clear
7:58 PM 61.9 °F - 11.1 °F 14% 30.21 in 10.0 mi North 6.9 mph - N/A   Clear
8:58 PM 53.1 °F - 18.3 °F 26% 30.20 in 10.0 mi West 4.6 mph - N/A   Clear
9:58 PM 56.3 °F - 12.9 °F 18% 30.19 in 10.0 mi North 5.8 mph - N/A   Clear
10:58 PM 50.7 °F - 16.2 °F 25% 30.20 in 10.0 mi NNW 4.6 mph - N/A   Clear
11:58 PM 47.7 °F - 17.8 °F 30% 30.19 in 10.0 mi NNW 6.9 mph - N/A   Clear